CENTISPACE-1 S3 (53757 NORAD) Tracking and Keplerian Element Data

This shows tracking and keplerian element data for the satellite.

Feedback or suggestion? Click here.




ElementValue
Catalog53757
NameCENTISPACE-1 S3
Epoch Orbit1109
Epoch Day325.1599574
Epoch Year2022
RAAN33.6371
Inclination53.5347
Eccentricity0.0011766
Argument of Perigee117.9344
Mean Anonmoly242.2816
Mean Motion14.58278972
Decay Rate-7.6E-07
L11 53757U 22108A 22325.15995740 -.00000076 00000+0 23442-4 0 9996
L22 53757 53.5347 33.6371 0011766 117.9344 242.2816 14.58278972 11098



Live tracking and technical data element details for CENTISPACE-1 S3 (NORAD 53757). CENTISPACE-1 S3 can be tracked NOW for your location showing map with azimuth and elevation plus other details from your city location.







IsCatalogInMostPopularTable: catalog: 53757, numindb: 2
Update: records affected: 1



GetName: 53757 CENTISPACE-1 S3

Hit Count: updated at: Thu, 08 Dec 2022 10:28:01 GMT